Flag for U.S.A. Weather past 2 weeks in Fort Bragg, California, U.S.A.

Now
61 °F

Overcast.


Feels Like: 61 °F
Forecast: 58 / 66 °F
Wind: 5 mph from Northeast

Location: Ukiah Municipal

Current Time: Aug 3, 2015 at 9:09:03 AM

Latest Report: Aug 3, 2015 at 7:56 AM


Visibility: 10 mi

Pressure: 29.94 "Hg

Humidity: 75%

Dew point: 53 °F

Location of Fort BraggLocation

Historic Weather in Fort Bragg — Graph

°F

Fort Bragg temperature yesterday

Maximum temperature yesterday: 93 °F (at 2:56 PM)
Minimum temperature yesterday: 60 °F (at 5:56 AM)
Average temperature yesterday: 74 °F

Past Weeks' High & Low Weather Summary

 TemperatureHumidityPressure
High106 °F (Jul 29, 2:56 PM)89% (Jul 23, 6:03 AM)30.08 "Hg (Jul 23, 6:03 AM)
Low51 °F (Jul 24, 5:56 AM)9% (Jul 29, 2:56 PM)29.73 "Hg (Jul 22, 2:56 PM)
Average75 °F47%29.91 "Hg
* Reported Jul 19 7:56 AM — Aug 3 7:56 AM, Fort Bragg, Weather by CustomWeather, © 2015

Note: Actual official high and low records may vary slightly from our data, if they occured in-between our weather recording intervals... More about our weather records

Advertising

Fort Bragg weather history for previous 24 hours

 ConditionsComfort  
Time TempWeatherWind HumidityBarometerVisibility
7:56 AM
Mon, Aug 3
61 °FOvercast.5 mph75%29.94 "Hg10 mi
6:56 AM59 °FOvercast.3 mph84%29.93 "Hg10 mi
5:56 AM58 °FMostly cloudy.No wind87%29.92 "Hg10 mi
4:56 AM58 °FClear.No wind87%29.92 "Hg10 mi
3:56 AM59 °FClear.3 mph84%29.90 "Hg10 mi
2:56 AM59 °FClear.No wind81%29.88 "Hg10 mi
1:56 AM62 °FClear.3 mph73%29.88 "Hg10 mi
12:56 AM64 °FClear.No wind70%29.87 "Hg10 mi
11:56 PM
Sun, Aug 2
65 °FClear.No wind68%29.87 "Hg10 mi
10:56 PM68 °FClear.No wind61%29.87 "Hg10 mi
9:56 PM71 °FClear.No wind55%29.86 "Hg10 mi
8:56 PM74 °FSunny.6 mph52%29.85 "Hg10 mi
7:56 PM78 °FSunny.8 mph45%29.85 "Hg10 mi
6:56 PM82 °FSunny.12 mph41%29.83 "Hg10 mi
5:56 PM87 °FSunny.6 mph33%29.83 "Hg10 mi
4:56 PM90 °FSunny.13 mph33%29.82 "Hg10 mi
3:56 PM90 °FSunny.10 mph33%29.82 "Hg10 mi
2:56 PM93 °FSunny.8 mph28%29.83 "Hg10 mi
1:56 PM91 °FSunny.8 mph33%29.85 "Hg10 mi
12:56 PM85 °FSunny.5 mph40%29.88 "Hg10 mi
11:56 AM79 °FSunny.No wind47%29.90 "Hg10 mi
10:56 AM74 °FSunny.3 mph56%29.92 "Hg10 mi
9:56 AM69 °FSunny.3 mph63%29.94 "Hg10 mi
Weather by CustomWeather, © 2015

See weather overviewHow to use our weather pages